sat.trackr.live / text

‹ back to catalog

STARLINK-34454

NORAD 64357 · 2025-126P

PAYLOAD ACTIVE UNKNOWN

§ Identity

Operator
Country
US
Launch date
2025-06-13
Launch site
AFWTR
Launch vehicle
Mass (kg)
RCS (m²)

Purposes: comms

External: N2YO · Heavens-Above · Gunter

§ Orbital elements

Epoch: 2026-05-24T21:43:21.550656Z

Period
96.11 min
Inclination
70.0002°
Eccentricity
0.0003496
Mean motion
14.98335448 rev/d
Perigee alt
569.6 km
Apogee alt
574.5 km
Semi-major
6,950.2 km
B*
2.1194e-4
RAAN
202.4688°
Arg perigee
269.5640°
Mean anomaly
90.5119°
Rev number
5,209

§ Raw data

STARLINK-344541 64357U 25126P   26144.90511054  .00002437  00000+0  21194-3 0  99982 64357  70.0002 202.4688 0003496 269.5640  90.5119 14.98335448 52090

JSON: /api/v1/satellites/64357 · /tle

For live sub-satellite position, see the globe view (requires WebGL).

§ Visibility from observer

Set your observer location to see the next 7 days of passes ≥ 10°. The values pass through the URL so the page stays shareable.

No JS? Fill the form by hand. The geolocation button needs JavaScript.